Terminal Aerodrome Forecast
Issued by NWS

Home | Current Version | Previous Version | Text Only | Print | Product List | Glossary On
Versions: 1 2 3 4 5 6 7 8 9 10 11 12 13 14 15 16 17 18 19 20 21 22 23 24 25 26 27 28 29 30 31 32 33
000
FTUS42 KCAE 051100
TAFDNL
TAF
KDNL 051125Z 0512/0612 21010G15KT P6SM OVC025
     FM051400 24010G18KT P6SM OVC015
     FM051800 26010G20KT 4SM -SHRA OVC025
     FM052100 32010KT P6SM -RA OVC015
     FM060400 03012G20KT P6SM OVC035=

USA.gov is the U.S. government's official web portal to all federal, state and local government web resources and services.